Terminal Aerodrome Forecast
Issued by NWS

Home | Current Version | Previous Version | Text Only | Print | Product List | Glossary On
Versions: 1 2 3 4 5 6 7 8 9 10 11 12 13 14 15 16 17 18 19 20 21 22 23 24 25
347
FTUS43 KDLH 241103 AAD
TAFHYR
TAF AMD
KHYR 241103Z 2411/2506 23004KT P6SM BKN023
     FM241200 26008KT P6SM SCT020
     FM250100 VRB03KT P6SM SCT200=

USA.gov is the U.S. government's official web portal to all federal, state and local government web resources and services.